KA2FNK Weather Reports


Display with metric or nautical units.
time (UTC)temp
F
wind
direction
speed
MPH
gust
MPH
rain 1hr
in
rain 24hr
in
rain mn
in
humidity
%
barometer
mb
20260905024335 85 218 0.0 0.0 0.00 0.00 0.00 56 1012.9
20260905023822 86 218 0.0 0.0 0.00 0.00 0.00 56 1012.8
20260905023309 86 218 0.0 0.0 0.00 0.00 0.00 55 1012.8
20260905022756 86 218 0.0 0.0 0.00 0.00 0.00 54 1012.7
20260905022243 86 218 0.0 0.0 0.00 0.00 0.00 54 1012.6
20260905021730 85 218 0.0 0.0 0.00 0.00 0.00 55 1012.6
20260905021217 86 218 0.0 0.0 0.00 0.00 0.00 55 1012.6
20260905020704 86 218 0.0 0.0 0.00 0.00 0.00 53 1012.5
20260905020151 86 218 0.0 0.0 0.00 0.00 0.00 52 1012.4
20260905015638 86 218 0.0 0.0 0.00 0.00 0.00 53 1012.3
20260905015125 86 218 0.0 0.0 0.00 0.00 0.00 52 1012.2
20260905014612 87 218 0.0 0.0 0.00 0.00 0.00 51 1012.2
20260905014059 87 218 0.0 0.0 0.00 0.00 0.00 51 1012.2
20260905013546 87 218 0.0 0.0 0.00 0.00 0.00 50 1012.1
20260905013033 88 218 0.0 0.0 0.00 0.00 0.00 50 1012.1
20260905012520 88 218 0.0 0.0 0.00 0.00 0.00 49 1011.9
20260905012007 89 218 0.0 0.0 0.00 0.00 0.00 48 1011.9
20260905011454 89 218 0.0 0.0 0.00 0.00 0.00 47 1011.9
20260905010941 90 218 0.0 0.0 0.00 0.00 0.00 47 1011.8
20260905010428 90 218 0.0 0.0 0.00 0.00 0.00 47 1011.8
20260905005915 90 218 0.0 0.0 0.00 0.00 0.00 47 1011.7
20260905005402 91 218 0.0 0.0 0.00 0.00 0.00 45 1011.8
20260905004849 91 218 0.0 0.0 0.00 0.00 0.00 44 1011.7
20260905004336 92 218 0.0 0.0 0.00 0.00 0.00 43 1011.7
20260905003823 92 218 0.0 0.0 0.00 0.00 0.00 42 1011.7
20260905003310 93 218 0.0 0.0 0.00 0.00 0.00 41 1011.8
20260905002757 93 218 0.0 0.0 0.00 0.00 0.00 41 1011.8
20260905002244 93 218 0.0 0.0 0.00 0.00 0.00 40 1011.8
20260905001731 93 218 0.0 0.0 0.00 0.00 0.00 39 1011.8
20260905001218 93 218 0.0 0.0 0.00 0.00 0.00 40 1011.9
20260905000705 94 180 6.0 9.0 0.00 0.00 0.00 39 1011.9
20260905000152 94 190 0.0 0.0 0.00 0.00 0.00 39 1011.8
20260904235639 94 190 0.0 5.0 0.00 0.00 0.00 38 1011.8
20260904235126 94 205 0.0 0.0 0.00 0.00 0.00 39 1011.8
20260904234613 94 205 0.0 4.0 0.00 0.00 0.00 39 1011.8
20260904234100 94 179 0.0 0.0 0.00 0.00 0.00 38 1011.8
20260904233547 94 179 0.0 0.0 0.00 0.00 0.00 39 1011.8
20260904233034 94 179 0.0 0.0 0.00 0.00 0.00 39 1011.8
20260904232521 94 179 0.0 0.0 0.00 0.00 0.00 40 1011.9
20260904232008 94 179 0.0 6.0 0.00 0.00 0.00 40 1011.9
20260904231455 94 183 0.0 10.0 0.00 0.00 0.00 39 1011.9
20260904230942 94 170 0.0 6.0 0.00 0.00 0.00 39 1011.9
20260904230429 94 163 0.0 6.0 0.00 0.00 0.00 40 1012.0
20260904225916 94 174 0.0 4.0 0.00 0.00 0.00 38 1012.0
20260904225403 94 186 1.0 8.0 0.00 0.00 0.00 38 1012.0
20260904224850 94 198 0.0 7.0 0.00 0.00 0.00 39 1012.0
20260904224337 94 181 0.0 5.0 0.00 0.00 0.00 39 1011.9
20260904223824 94 176 0.0 8.0 0.00 0.00 0.00 39 1012.0
20260904223311 94 210 0.0 5.0 0.00 0.00 0.00 39 1012.0
20260904222758 95 105 0.0 5.0 0.00 0.00 0.00 39 1012.0
20260904222245 95 198 0.0 8.0 0.00 0.00 0.00 39 1012.0
20260904221732 95 193 0.0 0.0 0.00 0.00 0.00 40 1012.0
20260904221219 95 193 0.0 4.0 0.00 0.00 0.00 39 1012.0
20260904220706 95 222 5.0 11.0 0.00 0.00 0.00 38 1012.1
20260904220153 95 170 4.0 9.0 0.00 0.00 0.00 39 1012.1
20260904215640 95 198 2.0 7.0 0.00 0.00 0.00 38 1012.1
20260904215127 95 177 0.0 0.0 0.00 0.00 0.00 39 1012.2
20260904214614 95 177 0.0 3.0 0.00 0.00 0.00 39 1012.2
20260904214101 95 156 0.0 7.0 0.00 0.00 0.00 40 1012.2
20260904213548 95 195 2.0 3.0 0.00 0.00 0.00 38 1012.2
20260904213035 95 186 0.0 5.0 0.00 0.00 0.00 39 1012.3
20260904212522 95 201 0.0 13.0 0.00 0.00 0.00 38 1012.3
20260904212009 96 97 0.0 6.0 0.00 0.00 0.00 39 1012.3
20260904211456 96 146 2.0 3.0 0.00 0.00 0.00 38 1012.3
20260904210943 95 186 0.0 0.0 0.00 0.00 0.00 40 1012.3
20260904210430 95 186 0.0 0.0 0.00 0.00 0.00 39 1012.3
20260904205917 95 186 0.0 7.0 0.00 0.00 0.00 38 1012.5
20260904205404 95 188 0.0 0.0 0.00 0.00 0.00 39 1012.5
20260904204851 95 188 0.0 6.0 0.00 0.00 0.00 40 1012.6
20260904204338 94 184 0.0 8.0 0.00 0.00 0.00 40 1012.6
20260904203825 94 152 0.0 4.0 0.00 0.00 0.00 40 1012.7
20260904203312 94 172 0.0 12.0 0.00 0.00 0.00 40 1012.8
20260904202759 95 238 0.0 0.0 0.00 0.00 0.00 40 1012.8
20260904202246 94 238 0.0 7.0 0.00 0.00 0.00 39 1012.8
20260904201733 95 186 0.0 3.0 0.00 0.00 0.00 40 1012.9
20260904201220 95 162 0.0 7.0 0.00 0.00 0.00 40 1012.9
20260904200707 95 170 0.0 0.0 0.00 0.00 0.00 40 1012.9
20260904200154 95 170 0.0 4.0 0.00 0.00 0.00 40 1013.0
20260904195641 95 191 0.0 8.0 0.00 0.00 0.00 40 1013.1
20260904195128 95 163 0.0 0.0 0.00 0.00 0.00 40 1013.0
20260904194615 94 163 0.0 0.0 0.00 0.00 0.00 42 1013.1
20260904194102 94 163 2.0 8.0 0.00 0.00 0.00 40 1013.1
20260904193549 94 193 3.0 13.0 0.00 0.00 0.00 41 1013.1
20260904193036 95 200 0.0 6.0 0.00 0.00 0.00 41 1013.2
20260904192523 94 180 0.0 0.0 0.00 0.00 0.00 42 1013.2
20260904192010 94 180 0.0 3.0 0.00 0.00 0.00 42 1013.2
20260904191457 94 212 0.0 7.0 0.00 0.00 0.00 42 1013.3
20260904190944 94 167 0.0 4.0 0.00 0.00 0.00 42 1013.3
20260904190431 94 152 0.0 7.0 0.00 0.00 0.00 43 1013.3
20260904185918 94 197 0.0 0.0 0.00 0.00 0.00 43 1013.3
20260904185405 93 197 0.0 3.0 0.00 0.00 0.00 42 1013.3
20260904184852 93 204 3.0 10.0 0.00 0.00 0.00 45 1013.3
20260904184339 94 221 0.0 8.0 0.00 0.00 0.00 44 1013.4
20260904183826 94 165 0.0 0.0 0.00 0.00 0.00 43 1013.6
20260904183313 93 165 0.0 0.0 0.00 0.00 0.00 43 1013.8
20260904182800 92 165 0.0 0.0 0.00 0.00 0.00 44 1013.7
20260904182247 92 165 0.0 9.0 0.00 0.00 0.00 44 1013.7
20260904181734 92 190 0.0 8.0 0.00 0.00 0.00 44 1013.7
20260904181221 91 194 5.0 8.0 0.00 0.00 0.00 44 1013.7
20260904180708 92 218 2.0 5.0 0.00 0.00 0.00 44 1013.7
20260904180155 92 210 0.0 12.0 0.00 0.00 0.00 45 1013.8
20260904175642 92 172 0.0 11.0 0.00 0.00 0.00 47 1013.8
20260904175129 91 177 0.0 7.0 0.00 0.00 0.00 46 1013.8
20260904174616 91 138 1.0 8.0 0.00 0.00 0.00 47 1013.9
20260904174103 91 149 0.0 13.0 0.00 0.00 0.00 47 1014.0
20260904173550 91 180 0.0 8.0 0.00 0.00 0.00 47 1014.0
20260904173037 91 212 0.0 10.0 0.00 0.00 0.00 47 1014.1
20260904172524 91 211 0.0 8.0 0.00 0.00 0.00 48 1014.1
20260904172011 90 201 0.0 9.0 0.00 0.00 0.00 48 1014.1
20260904171458 90 183 1.0 11.0 0.00 0.00 0.00 50 1014.2
20260904170945 90 191 0.0 9.0 0.00 0.00 0.00 49 1014.3
20260904170432 89 158 0.0 7.0 0.00 0.00 0.00 50 1014.3
20260904165919 89 226 2.0 12.0 0.00 0.00 0.00 49 1014.4
20260904165406 89 264 0.0 8.0 0.00 0.00 0.00 52 1014.4
20260904164853 89 224 0.0 13.0 0.00 0.00 0.00 51 1014.5
20260904164340 89 233 0.0 8.0 0.00 0.00 0.00 52 1014.5
20260904163827 89 208 4.0 10.0 0.00 0.00 0.00 51 1014.5
20260904163314 89 225 8.0 11.0 0.00 0.00 0.00 49 1014.4
20260904162801 89 193 0.0 4.0 0.00 0.00 0.00 51 1014.5
20260904162248 88 210 0.0 2.0 0.00 0.00 0.00 52 1014.4
20260904161735 87 214 0.0 9.0 0.00 0.00 0.00 52 1014.4
20260904161222 88 208 2.0 10.0 0.00 0.00 0.00 52 1014.5
20260904160709 88 239 0.0 9.0 0.00 0.00 0.00 54 1014.5
20260904160156 87 176 0.0 7.0 0.00 0.00 0.00 54 1014.5
20260904155643 87 235 0.0 8.0 0.00 0.00 0.00 54 1014.6
20260904155130 87 226 4.0 11.0 0.00 0.00 0.00 56 1014.6
20260904154617 87 202 0.0 11.0 0.00 0.00 0.00 55 1014.5
20260904154104 86 267 0.0 5.0 0.00 0.00 0.00 57 1014.5
20260904153551 86 215 4.0 7.0 0.00 0.00 0.00 58 1014.6
20260904153038 86 197 0.0 11.0 0.00 0.00 0.00 58 1014.6
20260904152525 85 239 0.0 6.0 0.00 0.00 0.00 57 1014.6
20260904152012 85 194 0.0 10.0 0.00 0.00 0.00 58 1014.6
20260904151459 85 221 0.0 5.0 0.00 0.00 0.00 58 1014.5
20260904150946 85 221 3.0 10.0 0.00 0.00 0.00 59 1014.6
20260904150433 84 233 0.0 10.0 0.00 0.00 0.00 59 1014.5
20260904145920 84 188 0.0 8.0 0.00 0.00 0.00 61 1014.6
20260904145407 84 231 0.0 9.0 0.00 0.00 0.00 60 1014.5
20260904144854 84 224 0.0 9.0 0.00 0.00 0.00 62 1014.5
20260904144341 83 222 0.0 10.0 0.00 0.00 0.00 62 1014.5
20260904143828 83 183 3.0 10.0 0.00 0.00 0.00 62 1014.6
20260904143315 82 202 5.0 6.0 0.00 0.00 0.00 63 1014.5
20260904142802 83 208 0.0 7.0 0.00 0.00 0.00 63 1014.6
20260904142249 82 217 0.0 5.0 0.00 0.00 0.00 64 1014.5
20260904141736 82 239 0.0 8.0 0.00 0.00 0.00 64 1014.5
20260904141223 82 277 0.0 4.0 0.00 0.00 0.00 64 1014.5
20260904140710 82 210 0.0 9.0 0.00 0.00 0.00 64 1014.5
20260904140157 82 204 0.0 5.0 0.00 0.00 0.00 63 1014.4
20260904135644 82 262 2.0 7.0 0.00 0.00 0.00 63 1014.4
20260904135131 81 200 0.0 3.0 0.00 0.00 0.00 64 1014.4
20260904134618 81 225 0.0 11.0 0.00 0.00 0.00 65 1014.4
20260904134105 81 229 0.0 4.0 0.00 0.00 0.00 65 1014.4
20260904133552 81 250 0.0 7.0 0.00 0.00 0.00 65 1014.4
20260904133039 81 202 0.0 9.0 0.00 0.00 0.00 66 1014.3
20260904132526 80 222 2.0 5.0 0.00 0.00 0.00 67 1014.3
20260904132013 80 210 2.0 8.0 0.00 0.00 0.00 66 1014.3
20260904131500 80 187 3.0 7.0 0.00 0.00 0.00 66 1014.3
20260904130947 80 187 0.0 3.0 0.00 0.00 0.00 67 1014.3
20260904130434 80 233 0.0 4.0 0.00 0.00 0.00 68 1014.2
20260904125921 80 214 0.0 3.0 0.00 0.00 0.00 69 1014.2
20260904125408 79 202 0.0 7.0 0.00 0.00 0.00 69 1014.1
20260904124855 79 195 0.0 4.0 0.00 0.00 0.00 70 1014.1
20260904124342 79 212 0.0 6.0 0.00 0.00 0.00 70 1013.9
20260904123829 78 158 0.0 4.0 0.00 0.00 0.00 70 1014.0
20260904123316 79 221 0.0 6.0 0.00 0.00 0.00 71 1013.9
20260904122803 78 217 0.0 7.0 0.00 0.00 0.00 71 1013.8
20260904122250 78 194 0.0 3.0 0.00 0.00 0.00 71 1013.8
20260904121737 78 200 0.0 2.0 0.00 0.00 0.00 71 1013.7
20260904121224 78 194 2.0 7.0 0.00 0.00 0.00 71 1013.7
20260904120711 78 218 0.0 5.0 0.00 0.00 0.00 71 1013.6
20260904120158 79 207 0.0 5.0 0.00 0.00 0.00 70 1013.6
20260904115645 79 214 0.0 10.0 0.00 0.00 0.00 70 1013.6
20260904115132 79 173 0.0 2.0 0.00 0.00 0.00 70 1013.4
20260904114619 79 173 2.0 8.0 0.00 0.00 0.00 70 1013.3
20260904114106 78 200 0.0 6.0 0.00 0.00 0.00 70 1013.3
20260904113553 79 142 0.0 7.0 0.00 0.00 0.00 70 1013.2
20260904113040 79 146 0.0 3.0 0.00 0.00 0.00 70 1013.2
20260904112527 78 187 0.0 6.0 0.00 0.00 0.00 70 1013.2
20260904112014 78 210 0.0 3.0 0.00 0.00 0.00 70 1013.1
20260904111501 78 200 0.0 4.0 0.00 0.00 0.00 70 1013.1
20260904110948 78 197 0.0 3.0 0.00 0.00 0.00 70 1013.1
20260904110435 78 210 0.0 3.0 0.00 0.00 0.00 70 1013.0
20260904105922 78 217 1.0 3.0 0.00 0.00 0.00 70 1013.0
20260904105409 78 180 0.0 0.0 0.00 0.00 0.00 70 1013.0
20260904104856 78 180 0.0 7.0 0.00 0.00 0.00 70 1013.0
20260904104343 78 219 0.0 6.0 0.00 0.00 0.00 70 1013.0
20260904103830 78 215 5.0 7.0 0.00 0.00 0.00 70 1013.0
20260904103317 79 214 1.0 2.0 0.00 0.00 0.00 70 1013.0
20260904102804 79 163 0.0 4.0 0.00 0.00 0.00 69 1013.0
20260904102251 79 210 0.0 4.0 0.00 0.00 0.00 69 1012.9
20260904101738 79 149 0.0 4.0 0.00 0.00 0.00 69 1012.9
20260904101225 79 190 0.0 6.0 0.00 0.00 0.00 69 1012.9
20260904100712 79 172 0.0 4.0 0.00 0.00 0.00 68 1012.8
20260904100159 79 172 0.0 2.0 0.00 0.00 0.00 68 1012.8
20260904095646 79 181 0.0 6.0 0.00 0.00 0.00 68 1012.9
20260904095133 79 165 0.0 2.0 0.00 0.00 0.00 68 1012.8
20260904094620 80 170 0.0 4.0 0.00 0.00 0.00 67 1012.7
20260904094107 80 174 0.0 5.0 0.00 0.00 0.00 66 1012.7
20260904093554 80 158 0.0 0.0 0.00 0.00 0.00 65 1012.6
20260904093041 80 158 0.0 4.0 0.00 0.00 0.00 65 1012.6
20260904092528 80 200 0.0 2.0 0.00 0.00 0.00 67 1012.5
20260904092015 80 179 0.0 2.0 0.00 0.00 0.00 67 1012.5
20260904091502 80 180 0.0 4.0 0.00 0.00 0.00 66 1012.5
20260904090949 80 188 0.0 0.0 0.00 0.00 0.00 66 1012.5
20260904090436 80 188 0.0 0.0 0.00 0.00 0.00 66 1012.4
20260904085923 80 188 0.0 0.0 0.00 0.00 0.00 66 1012.3
20260904085410 80 188 0.0 5.0 0.00 0.00 0.00 66 1012.3
20260904084857 80 191 0.0 0.0 0.00 0.00 0.00 66 1012.2
20260904084344 80 191 0.0 2.0 0.00 0.00 0.00 65 1012.3
20260904083831 81 191 0.0 0.0 0.00 0.00 0.00 65 1012.2
20260904083318 80 191 0.0 4.0 0.00 0.00 0.00 65 1012.3
20260904082805 81 173 0.0 0.0 0.00 0.00 0.00 64 1012.3
20260904082252 81 173 0.0 4.0 0.00 0.00 0.00 65 1012.2
20260904081739 81 181 0.0 0.0 0.00 0.00 0.00 64 1012.1
20260904081226 81 181 0.0 0.0 0.00 0.00 0.00 64 1012.1
20260904080713 81 181 0.0 0.0 0.00 0.00 0.00 64 1012.1
20260904080200 81 97 0.0 3.0 0.00 0.00 0.00 63 1012.1
20260904075647 81 159 0.0 0.0 0.00 0.00 0.00 63 1012.0
20260904075134 81 159 0.0 0.0 0.00 0.00 0.00 63 1012.0
20260904074621 81 159 0.0 0.0 0.00 0.00 0.00 62 1012.0
20260904074108 82 159 0.0 0.0 0.00 0.00 0.00 62 1012.0
20260904073555 82 159 0.0 6.0 0.00 0.00 0.00 62 1012.0
20260904073042 82 235 0.0 0.0 0.00 0.00 0.00 61 1011.9
20260904072529 82 235 0.0 0.0 0.00 0.00 0.00 61 1012.0
20260904072016 82 235 0.0 0.0 0.00 0.00 0.00 61 1012.0
20260904071503 82 235 0.0 0.0 0.00 0.00 0.00 60 1012.1
20260904070950 83 235 0.0 0.0 0.00 0.00 0.00 59 1012.1
20260904070437 83 235 0.0 0.0 0.00 0.00 0.00 58 1012.1
20260904065924 83 235 0.0 0.0 0.00 0.00 0.00 58 1012.1
20260904065411 84 235 0.0 0.0 0.00 0.00 0.00 58 1012.1
20260904064858 84 235 0.0 0.0 0.00 0.00 0.00 57 1012.1
20260904064345 84 235 0.0 7.0 0.00 0.00 0.00 57 1012.2
20260904063832 84 221 2.0 4.0 0.00 0.00 0.00 56 1012.2
20260904063319 84 210 0.0 0.0 0.00 0.00 0.00 55 1012.2
20260904062806 85 210 0.0 9.0 0.00 0.00 0.00 55 1012.1
20260904062253 85 217 0.0 0.0 0.00 0.00 0.00 54 1012.2
20260904061740 85 217 0.0 2.0 0.00 0.00 0.00 53 1012.1
20260904061227 85 180 0.0 0.0 0.00 0.00 0.00 53 1012.1
20260904060714 85 180 0.0 3.0 0.00 0.00 0.00 53 1012.2
20260904060201 85 202 0.0 0.0 0.00 0.00 0.00 53 1012.2
20260904055648 85 202 0.0 3.0 0.00 0.00 0.00 52 1012.2
20260904055135 85 204 0.0 3.0 0.00 0.00 0.00 52 1012.1
20260904054622 86 221 0.0 7.0 0.00 0.00 0.00 51 1012.1
20260904054109 85 177 2.0 5.0 0.00 0.00 0.00 51 1012.0
20260904053556 85 200 0.0 3.0 0.00 0.00 0.00 51 1012.0
20260904053043 86 204 0.0 0.0 0.00 0.00 0.00 51 1012.0
20260904052530 85 204 0.0 0.0 0.00 0.00 0.00 50 1012.0
20260904052017 85 204 0.0 0.0 0.00 0.00 0.00 50 1011.9
20260904051504 85 204 0.0 3.0 0.00 0.00 0.00 50 1011.9
20260904050951 86 211 0.0 2.0 0.00 0.00 0.00 49 1011.9
20260904050438 86 184 0.0 1.0 0.00 0.00 0.00 49 1011.8
20260904045925 86 198 0.0 2.0 0.00 0.00 0.00 49 1011.9
20260904045412 86 198 0.0 3.0 0.00 0.00 0.00 49 1011.9
20260904044859 85 197 0.0 0.0 0.00 0.00 0.00 50 1011.9
20260904044346 85 197 0.0 6.0 0.00 0.00 0.00 50 1011.9
20260904043833 85 211 0.0 0.0 0.00 0.00 0.00 50 1011.8
20260904043320 86 211 0.0 0.0 0.00 0.00 0.00 50 1011.8
20260904042807 86 211 0.0 0.0 0.00 0.00 0.00 50 1011.8
20260904042254 86 211 0.0 0.0 0.00 0.00 0.00 50 1011.7
20260904041741 86 211 0.0 0.0 0.00 0.00 0.00 49 1011.7
20260904041228 87 211 0.0 2.0 0.00 0.00 0.00 49 1011.7
20260904040715 87 211 0.0 0.0 0.00 0.00 0.00 48 1011.8
20260904040202 87 211 0.0 0.0 0.00 0.00 0.00 49 1011.7
20260904035649 87 211 0.0 2.0 0.00 0.00 0.00 49 1011.7
20260904035136 87 128 0.0 0.0 0.00 0.00 0.00 49 1011.8
20260904034623 87 128 0.0 0.0 0.00 0.00 0.00 48 1011.7
20260904034110 87 128 0.0 0.0 0.00 0.00 0.00 48 1011.7
20260904033557 87 128 0.0 0.0 0.00 0.00 0.00 48 1011.7
20260904033044 87 128 1.0 1.0 0.00 0.00 0.00 47 1011.7
20260904032531 87 128 0.0 3.0 0.00 0.00 0.00 47 1011.7
20260904032018 87 105 0.0 4.0 0.00 0.00 0.00 48 1011.7
20260904031505 87 176 0.0 4.0 0.00 0.00 0.00 47 1011.6
20260904030952 87 179 0.0 3.0 0.00 0.00 0.00 48 1011.7
20260904030439 87 179 0.0 4.0 0.00 0.00 0.00 48 1011.6
20260904025926 87 124 0.0 5.0 0.00 0.00 0.00 47 1011.6
20260904025413 87 155 0.0 0.0 0.00 0.00 0.00 48 1011.6
20260904024900 87 155 0.0 0.0 0.00 0.00 0.00 48 1011.6